Home > Weather > Barsinghausen > Past weeks

Flag for Germany Past Weather in Barsinghausen, Lower Saxony, Germany — Yesterday and Last 2 Weeks

Now
61 °F

Cool.


Feels Like: 61 °F
Forecast: 59 / 71 °F
Wind: 7 mph from Northeast

Location: Wunstorf Airport

Current Time: May 29, 2016 at 3:28:13 PM

Latest Report: May 29, 2016 at 2:20 PM


Visibility: 3 mi

Pressure: 29.77 "Hg

Humidity: 88%

Dew Point: 57 °F

Location of BarsinghausenLocation

Past Weather in Barsinghausen — Graph

°F

Barsinghausen Temperature Yesterday

Maximum temperature yesterday: 73 °F (at 4:20 PM)
Minimum temperature yesterday: 57 °F (at 2:20 AM)
Average temperature yesterday: 65 °F

High & Low Weather Summary for the Past Weeks

 TemperatureHumidityPressure
High82 °F (May 22, 2:20 PM)100% (May 23, 1:20 AM)30.07 "Hg (May 23, 1:20 AM)
Low41 °F (May 15, 3:20 AM)35% (May 22, 2:20 PM)29.71 "Hg (May 19, 1:20 AM)
Average57 °F71%29.93 "Hg
* Reported May 14 1:20 PM — May 29 1:20 PM, Barsinghausen, Weather by CustomWeather, © 2016

Note: Actual official high and low records may vary slightly from our data, if they occured in-between our weather recording intervals... More about our weather records

Advertising

Barsinghausen Weather History for the Previous 24 Hours

Scroll right to see more
 ConditionsComfort  
Time TempWeatherWind HumidityBarometerVisibility
1:20 PM
Sun, May 29
59 °FCool.7 mph94%29.77 "Hg4 mi
12:20 PM59 °FCool.7 mph94%29.77 "Hg5 mi
11:20 AM59 °FCool.7 mph94%29.80 "Hg1 mi
10:20 AM59 °FCool.7 mph88%29.80 "Hg3 mi
9:20 AM59 °FCool.9 mph88%29.80 "Hg4 mi
8:20 AM59 °FCool.13 mph88%29.80 "Hg4 mi
7:20 AM59 °FCool.7 mph88%29.80 "Hg3 mi
6:20 AM59 °FCool.7 mph88%29.83 "Hg6 mi
5:20 AM59 °FCool.5 mph82%29.83 "HgN/A
4:20 AM61 °FCool.6 mph77%29.83 "HgN/A
3:20 AM61 °FCool.7 mph77%29.83 "HgN/A
2:20 AM63 °FMild.8 mph73%29.86 "HgN/A
1:20 AM63 °FMild.9 mph68%29.86 "HgN/A
12:20 AM64 °FMild.8 mph64%29.86 "HgN/A
11:20 PM
Sat, May 28
64 °FMild.8 mph64%29.89 "HgN/A
10:20 PM66 °FMild.7 mph60%29.89 "HgN/A
9:20 PM68 °FMild.7 mph56%29.89 "HgN/A
8:20 PM70 °FMild.8 mph53%29.89 "HgN/A
7:20 PM72 °FMild.10 mph50%29.89 "HgN/A
6:20 PM72 °FMild.12 mph47%29.89 "HgN/A
5:20 PM73 °FMild.12 mph44%29.89 "Hg6 mi
4:20 PM73 °FMild.9 mph47%29.89 "Hg6 mi
3:20 PM72 °FMild.10 mph47%29.92 "HgN/A
Weather by CustomWeather, © 2016

See weather overviewHow to use our weather pages